RH
40 36 34 32 27 27 25 23 15 10 10 17 21 37 48 52 43 27 15 13 17 21 29 38 36 28 22 21 37 23 31 45 46 66 78 95 96 96
21 12 11 11 13 9 8 7 6 5 7 13 32 37 49 48 48 52 44 25 29 29 26 26 31 39 31 31 35 28 27 39 23 46 71 76 82 93
8 8 8 8 7 7 8 7 5 3 3 12 40 51 53 62 59 54 53 64 61 45 33 28 26 30 42 53 49 33 34 22 37 47 65 70 89 70
13 13 14 14 10 8 7 5 5 4 12 35 42 48 51 53 57 64 66 71 73 67 64 51 34 30 32 36 72 64 39 25 24 30 32 60 66 76
15 13 19 32 39 17 8 6 6 22 41 43 43 45 45 50 64 68 72 73 80 88 87 79 69 28 32 29 22 23 21 26 40 45 34 38 74 92
13 13 10 13 45 29 14 36 58 52 51 49 47 44 41 46 65 60 84 94 91 94 87 87 84 73 46 23 20 19 20 23 66 82 76 75 74 62
12 11 9 17 66 76 68 66 60 59 52 39 36 38 38 47 100 76 80 97 100 92 99 98 100 97 80 47 36 39 42 36 34 33 53 46 86 94
16 13 12 11 65 64 58 64 63 47 50 41 40 33 56 66 100 98 99 97 98 92 97 98 94 93 94 62 50 45 46 49 35 24 17 22 24 71
18 18 16 9 46 66 70 67 55 53 52 55 43 52 60 67 73 77 84 96 97 97 89 87 92 90 71 52 55 64 49 45 40 29 24 34 99 100
16 21 15 10 19 47 51 75 64 62 52 58 57 54 62 64 66 81 91 94 96 73 74 88 90 66 59 76 74 47 34 35 38 32 27 29 87 74
17 20 19 14 11 14 31 68 74 76 66 59 62 64 73 84 82 76 90 97 94 88 97 95 99 94 90 91 86 40 28 37 68 53 73 80 94 78
17 22 19 18 14 19 52 71 82 78 72 74 80 82 82 89 97 99 100 98 92 95 96 100 99 98 82 50 48 39 28 41 55 94 98 99 99 100
17 23 20 18 17 30 93 80 69 68 71 78 78 75 78 84 89 90 88 94 84 94 93 79 86 100 80 80 83 66 85 95 98 99 98 97 97 97
20 24 20 22 19 20 23 27 41 59 96 91 82 73 59 92 82 82 84 82 84 66 85 97 98 99 91 85 80 98 94 94 97 100 99 98 98 98
26 23 22 23 23 22 23 24 26 26 28 33 53 41 27 62 91 92 88 90 83 91 97 87 74 85 83 89 94 96 100 98 98 98 100 98 100 94
51 25 25 23 25 24 24 23 20 19 19 20 21 22 21 20 23 34 41 51 56 74 88 84 87 81 97 100 98 99 99 98 88 71 57 45 41 37
90 30 29 25 25 25 22 22 21 21 21 22 24 25 25 26 25 26 27 28 30 29 31 34 35 36 40 36 33 33 40 51 52 36 29 31 33 32
98 40 31 29 26 25 24 24 26 26 26 28 34 41 46 44 41 38 36 32 26 22 21 19 16 15 14 18 22 23 25 22 20 20 20 21 19 19
100 60 34 33 29 28 29 29 28 29 31 44 57 60 51 39 27 21 15 12 11 12 12 12 12 13 12 12 13 12 12 12 12 11 11 11 11 11
100 97 40 38 33 32 32 32 32 35 43 50 53 53 42 32 23 19 18 18 18 19 21 38 64 69 71 63 36 28 26 26 25 24 23 23 24 24
100 100 73 47 38 36 36 37 39 44 52 58 57 48 35 29 26 26 27 28 27 28 55 73 76 77 74 72 71 73 62 48 44 42 44 50 56 60
100 100 100 82 48 57 69 73 71 67 62 58 52 46 38 35 34 35 37 43 56 69 76 76 83 86 81 76 68 75 74 68 59 62 72 75 74 73
100 100 100 100 100 100 100 100 94 81 64 52 45 40 39 44 49 50 52 63 74 74 68 76 80 80 74 70 69 73 78 78 76 76 74 74 72 70
Wind_Speed
41 43 44 47 49 49 49 51 53 52 49 51 53 57 59 58 59 60 61 61 62 61 63 65 66 66 66 67 63 61 62 56 54 53 50 47 47 44
42 44 46 49 50 51 51 52 52 51 47 52 52 51 52 56 59 57 58 60 62 64 64 64 62 64 65 68 67 63 63 62 58 56 54 54 54 50
42 44 46 49 53 56 56 55 55 53 51 52 52 50 49 48 50 54 56 57 58 59 59 63 64 61 61 61 66 65 63 63 59 57 53 51 48 52
42 44 47 49 54 59 61 57 54 52 48 48 50 51 53 55 54 55 55 56 57 57 57 57 57 60 62 59 58 61 63 61 63 61 62 56 50 50
41 41 45 47 49 46 48 48 47 45 46 46 46 50 54 57 60 61 60 58 54 54 56 55 57 57 56 55 53 55 56 56 55 55 55 51 46 49
42 40 44 46 43 35 35 35 39 43 45 43 46 49 52 52 49 53 52 44 48 49 51 51 54 58 57 54 53 54 53 55 54 49 48 45 38 43
42 38 37 38 34 31 34 36 38 38 39 39 43 46 45 43 42 46 45 44 47 52 51 53 48 52 55 53 55 53 54 54 51 53 51 45 39 33
41 41 40 36 33 33 34 35 35 32 32 34 36 37 36 33 49 41 48 45 37 49 42 40 43 49 50 52 50 51 53 53 50 48 46 45 43 49
39 39 39 36 30 28 29 28 28 28 30 32 30 27 29 33 36 34 38 34 35 32 37 42 46 45 46 44 46 48 47 45 47 48 48 47 50 45
40 37 36 34 31 30 29 32 30 28 27 32 27 22 18 25 32 31 32 37 40 37 37 38 40 40 42 44 44 44 43 46 42 46 50 51 57 54
39 37 36 32 29 31 30 28 30 29 27 28 19 22 22 21 25 29 30 35 38 37 29 34 40 41 45 45 44 41 43 41 35 33 37 37 41 46
40 39 35 35 31 28 25 26 24 25 24 25 21 20 21 24 23 22 26 27 27 27 24 29 34 37 39 36 38 38 38 42 44 45 33 36 40 46
44 39 36 34 31 25 19 23 26 24 21 22 22 18 19 18 18 18 21 22 25 23 21 23 26 31 36 36 28 30 36 36 27 32 33 31 35 38
46 40 37 34 32 25 21 17 16 15 16 15 16 16 13 15 11 11 13 20 23 20 16 19 20 19 25 32 34 31 30 29 34 33 36 35 33 35
48 44 39 36 34 31 26 23 20 16 14 14 12 12 10 10 15 17 15 12 14 16 16 20 19 24 22 32 37 29 28 31 34 36 36 36 38 39
49 46 42 40 36 36 32 30 28 25 23 20 19 19 18 16 14 12 12 12 11 12 15 14 15 15 20 26 29 32 29 26 26 25 26 29 30 30
49 48 44 42 40 38 37 34 32 30 29 27 25 24 23 21 21 19 19 18 18 18 20 20 21 22 23 24 25 24 26 28 30 33 34 36 37 38
51 49 46 44 42 40 39 37 34 33 31 29 29 29 28 27 26 25 23 22 22 22 23 24 25 26 27 28 29 31 33 34 36 38 40 41 42 43
50 50 47 45 44 42 40 40 37 35 34 32 31 31 29 27 26 24 23 24 23 24 25 27 29 32 34 36 38 39 40 41 42 43 45 46 48 49
44 51 47 45 45 43 42 41 40 38 37 37 35 34 32 30 29 28 29 29 29 28 29 31 33 36 39 43 45 47 48 49 50 52 53 54 55 56
39 50 47 43 42 42 41 40 40 41 40 39 38 34 32 31 32 32 33 34 34 35 37 39 42 44 46 48 51 53 55 56 58 58 59 59 60 61
37 45 49 42 40 41 40 40 39 39 40 38 36 35 34 34 35 36 37 37 38 40 43 47 51 53 54 55 58 60 61 62 64 66 67 68 69 69
34 41 44 42 39 39 39 40 40 40 39 38 37 37 38 38 39 39 41 42 45 48 52 54 57 58 60 62 62 62 63 65 67 68 70 70 71 71
Wind_Direction
271 271 269 268 270 268 267 265 265 265 269 270 267 266 264 263 262 262 261 258 258 258 256 257 258 258 260 262 258 258 260 262 260 264 271 266 279 277
272 273 273 271 268 268 267 267 268 271 274 270 267 263 264 265 262 261 260 261 258 256 256 256 256 256 256 258 260 259 258 259 262 263 266 266 275 280
275 275 274 272 270 269 267 267 267 272 273 270 268 263 264 265 266 262 260 260 261 262 260 257 256 255 255 255 258 260 261 263 263 263 264 269 270 275
281 284 286 283 279 268 265 264 266 269 270 269 267 264 265 268 265 262 260 260 259 259 259 260 256 256 257 256 257 259 260 260 262 264 265 266 272 269
285 287 289 289 290 276 262 261 267 268 271 270 270 269 269 269 266 262 260 258 257 256 257 258 257 255 256 257 258 260 262 263 263 265 264 263 260 261
285 292 289 288 288 276 268 266 268 269 270 271 274 275 275 270 267 262 256 257 255 255 255 255 252 252 253 254 256 257 260 260 261 265 265 254 265 262
288 293 296 293 282 277 272 269 267 270 271 276 278 279 277 267 250 257 244 245 245 247 249 251 253 254 247 251 254 258 260 260 259 260 261 260 253 241
287 289 297 294 278 280 277 273 268 270 277 278 279 285 277 258 243 255 255 257 261 251 254 252 258 255 249 251 257 262 264 264 258 255 255 251 249 244
284 289 293 295 277 281 276 268 269 280 282 286 280 287 274 261 264 268 260 258 255 255 255 259 254 249 249 253 258 260 265 260 260 252 244 240 233 238
279 283 290 296 279 278 278 268 274 284 288 287 275 274 275 271 268 262 249 248 254 265 258 252 249 248 253 258 262 264 260 258 254 249 245 243 235 243
272 276 279 286 291 278 274 275 274 278 277 288 271 271 267 269 270 264 259 256 257 257 253 246 246 249 255 261 261 261 262 251 250 242 251 250 249 240
264 269 272 279 287 286 272 269 271 270 275 270 275 263 261 276 263 262 254 251 247 250 255 253 252 253 258 264 260 259 251 256 244 242 244 231 232 236
259 260 264 270 280 287 269 273 270 273 277 259 251 267 260 268 260 261 246 246 243 251 245 259 258 261 254 258 269 245 244 260 242 245 248 253 252 249
254 253 256 261 268 272 269 273 277 276 268 264 263 269 274 252 251 253 244 241 239 234 241 246 257 271 259 258 260 272 256 256 240 244 252 255 256 260
250 249 249 252 258 259 261 265 265 267 271 278 273 259 270 265 249 247 248 237 234 244 245 252 270 261 269 258 260 267 264 259 252 253 251 251 262 266
245 245 243 246 248 254 253 255 258 261 261 259 258 261 263 264 260 253 243 237 236 238 245 254 259 271 268 256 246 243 250 255 260 262 258 255 257 260
239 242 241 243 245 249 253 253 254 256 258 262 264 265 267 265 262 261 261 264 263 261 260 260 261 259 257 259 260 263 266 262 260 259 259 260 261 263
236 240 239 240 243 245 250 252 255 256 257 258 262 266 267 266 266 264 265 266 266 267 269 272 275 275 275 273 270 267 262 261 261 261 262 263 264 265
239 237 238 240 242 245 247 252 252 255 257 257 259 263 265 266 266 266 267 267 268 270 273 276 278 279 278 276 274 273 271 270 268 268 268 267 266 267
249 233 236 238 241 243 247 251 253 253 256 258 260 261 260 261 261 262 264 266 269 269 270 274 278 283 282 278 276 275 274 273 271 269 268 267 267 267
244 240 231 236 240 242 246 249 252 254 256 258 258 258 259 261 264 266 268 269 269 267 272 274 276 280 281 282 280 276 273 272 271 270 270 269 269 270
241 244 235 232 237 242 246 249 251 254 258 258 258 258 260 262 264 265 266 266 266 267 271 277 277 278 279 279 279 276 274 273 272 272 272 271 271 271
242 241 237 234 235 242 247 250 252 253 254 255 257 258 260 262 265 267 267 266 268 272 276 276 277 276 279 279 277 275 274 274 273 274 274 274 274 273